Loging...

KPDC, Korea Polar Data Center

Korea Polar Data Center Scientific observations and results from Antarctica shall
be exchanged and made freely available

Keyword Search

Advanced Search

Search 22,779 data out of 29,156

Metadata Search Results1
No. Title Reg. Date
1 [KOPRI-KPDC-00001171]Hydroacoustic data in Terra Nova Bay, 2018 2021-10-15
2 [KOPRI-KPDC-00000830]Hydroacoustic data, Balleny Islands, 2015 2021-10-15
3 [KOPRI-KPDC-00000899]Hydroacoustic data in Terra Nova Bay, 2017 2021-10-15
4 [KOPRI-KPDC-00000750]Hydroacoustic data in Terra Nova Bay, 2016 2021-10-14
5 [KOPRI-KPDC-00001850]Continuous monitoring of pCO2 and its relevant parameters in the coast of the Jang Bogo Station, Antarctica 2021-10-10
6 [KOPRI-KPDC-00001842]RS21-GC06 2021-10-10
7 [KOPRI-KPDC-00001841]RS21-GC05 2021-10-10
8 [KOPRI-KPDC-00001839]RS21-GC01 2021-10-10
9 [KOPRI-KPDC-00001840]RS21-GC04 2021-10-10
10 [KOPRI-KPDC-00001836]RS21-GC02 2021-10-10
11 [KOPRI-KPDC-00001835]RS21-GC03 2021-10-10
12 [KOPRI-KPDC-00001831]Marian Cove 2021 benthic survey image list 2021-10-10
13 [KOPRI-KPDC-00001780]Multibeam data (around Orca seamount in Bransfield strait) / 2020&21 season ANA11B 2021-10-10
14 [KOPRI-KPDC-00001776]CTD data (2011-2019), XCTD data (2017-2019) 2021-10-10
15 [KOPRI-KPDC-00001751]CTD Profile (wd16-334-20) 2021-10-08
16 [KOPRI-KPDC-00001749]CTD Profile (wd16-346-20) 2021-10-08
17 [KOPRI-KPDC-00001747]CTD Profile (wd16-345-20) 2021-10-08
18 [KOPRI-KPDC-00001746]CTD Profile (wd16-344-20) 2021-10-08
19 [KOPRI-KPDC-00001745]CTD Profile (wd16-343-20) 2021-10-08
20 [KOPRI-KPDC-00001744]CTD Profile (wd16-347-20) 2021-10-08
21 [KOPRI-KPDC-00001741]CTD Profile (wd16-351-20) 2021-10-08
22 [KOPRI-KPDC-00001740]CTD Profile (wd16-350-20) 2021-10-08
23 [KOPRI-KPDC-00001739]CTD Profile (wd16-353-20) 2021-10-08
24 [KOPRI-KPDC-00001738]CTD Profile (wd16-354-20) 2021-10-08
25 [KOPRI-KPDC-00001737]CTD Profile (wd16-369-20) 2021-10-08
26 [KOPRI-KPDC-00001736]CTD Profile (wd16-375-20) 2021-10-08
27 [KOPRI-KPDC-00001735]CTD Profile (wd16-378-20) 2021-10-08
28 [KOPRI-KPDC-00001734]CTD Profile (wd16-G1-20) 2021-10-08
29 [KOPRI-KPDC-00001733]CTD Profile (wd16-G4-20) 2021-10-08
30 [KOPRI-KPDC-00001713]CTD Profile (wd16-352-20) 2021-10-08
31 [KOPRI-KPDC-00001712]CTD Profile (wd16-G5-20) 2021-10-08
32 [KOPRI-KPDC-00001692]Molecular complex of melted snow collected at King Sejong Station #1 2021-10-08
33 [KOPRI-KPDC-00001634]Lowered Acoustic Doppler Current Profiler (LADCP) data - August 2016, western Arctic Ocean (4 CTD stations) 2021-10-08
34 [KOPRI-KPDC-00001623]Magnetic anomalies and bathymetry on the profile line (line2, 2013) crossing the seamounts around the KR1, Australian-Antarctic Ridge (AAR) 2021-10-08
35 [KOPRI-KPDC-00001622]Magnetic anomalies and bathymetry on the profile line (line3, 2013) crossing the seamounts around the KR1, Australian-Antarctic Ridge (AAR) 2021-10-08
36 [KOPRI-KPDC-00001621]Magnetic anomalies and bathymetry on the profile line (line1, 2016) crossing the seamounts around the KR1, Australian-Antarctic Ridge (AAR) 2021-10-08
37 [KOPRI-KPDC-00001680]Spatial distribution of Particulate Organic Carbon (POC) and Nitrogen (PON) in the Marian Cove and Maxwell Bay, 2021 2021-10-08
38 [KOPRI-KPDC-00001620]Magnetic anomalies and bathymetry on the profile line (line4, 2016) crossing the seamounts around the KR1, Australian-Antarctic Ridge (AAR) 2021-10-08
39 [KOPRI-KPDC-00001619]Magnetic anomalies and bathymetry on the profile line (line5, 2016) crossing the seamounts around the KR1, Australian-Antarctic Ridge (AAR) 2021-10-08
40 [KOPRI-KPDC-00001618]Magnetic anomalies and bathymetry on the profile line (line6, 2016) crossing the seamounts around the KR1, Australian-Antarctic Ridge (AAR) 2021-10-08
41 [KOPRI-KPDC-00001617]Underwater acoustic data in the East Siberian Sea from 2017 to 2018 2021-10-08
42 [KOPRI-KPDC-00001677]Magnetic anomalies and bathymetry along the 6-survey lines crossing the seamounts around the KR1, Australian-Antarctic Ridge (AAR) 2021-10-08
43 [KOPRI-KPDC-00001673]Multibeam data, Australian-Antarctic Ridge (AAR) and the Pacific-Antarctic Ridge (PAR), 2020/21 season 2021-10-08
44 [KOPRI-KPDC-00001672]2016&17 Multibeam data of Terra Nova Bay (around Jang Bogo station) 2021-10-08
45 [KOPRI-KPDC-00001671]2018&19 Multibeam data of Terra Nova Bay (around Jang Bogo station) 2021-10-08
46 [KOPRI-KPDC-00001594]Temporal variation of phytoplankton in the surface water of Marian Cove, King George Island, Antarctica, January 2020- October 2020 2021-10-08
47 [KOPRI-KPDC-00001586]Dissolved organic carbon data in Marian cove and Maxwell bay in January 2020 2021-10-08
48 [KOPRI-KPDC-00001658]CTD profiles from seal-tagging CTD bio-loggers 2021-10-08
49 [KOPRI-KPDC-00001656]LADCP data observed in the Terra Nova Bay, Ross Sea,in December, 2020 (ANA11A) 2021-10-08
50 [KOPRI-KPDC-00001551]Phytoplankton abundance in Marian cove and Maxwell bay in January 2020 2021-10-08
51 [KOPRI-KPDC-00001541]mooring data in the Marian Cove from 2019 2021-10-08
52 [KOPRI-KPDC-00001540]CTD data in the Marian Cove, Antarcica from 2019 to 2020 2021-10-08
53 [KOPRI-KPDC-00001484]Seismic data (ARA05C-L05 and L17 lines, segy format) and related inverted models (binary files) for Imaging the P-wave velocity structure of Arctic subsea permafrost 2021-10-08
54 [KOPRI-KPDC-00001468]Satellite SAR data-based sea ice drift vectors in Fram Strait (2019) 2021-10-08
55 [KOPRI-KPDC-00001683]Dissolved organic carbon and nitrogen in the Marian Cove and the Maxwell Bay, Antarctica 2021-10-08
56 [KOPRI-KPDC-00001681]Distribution of dissolved inorganic nutrients in the Marian Cove and the Maxwell Bay, Antarctica 2021-10-08
57 [KOPRI-KPDC-00001255]Oxygen isotope data collected in the Amundsen Sea during the austral summer of 2018 2021-10-08
58 [KOPRI-KPDC-00001185]RS19-GC10 2021-10-06
59 [KOPRI-KPDC-00001838]RS19-GC14 2021-10-05
60 [KOPRI-KPDC-00001753]CTD Profile (wd16-330-20) 2021-09-28
61 [KOPRI-KPDC-00001752]CTD Profile (wd16-333-20) 2021-09-28
62 [KOPRI-KPDC-00001750]CTD Profile (wd16-335-20) 2021-09-28
63 [KOPRI-KPDC-00001748]CTD Profile (wd16-337-20) 2021-09-28
64 [KOPRI-KPDC-00001743]CTD Profile (wd16-348-20) 2021-09-28
65 [KOPRI-KPDC-00001742]CTD Profile (wd16-349-20) 2021-09-28
66 [KOPRI-KPDC-00001732]CTD Profiles (wd16-329-20) 2021-09-28
67 [KOPRI-KPDC-00001708]Temporal variation of marine phytoplankton in the surface water of the Antarctic Jang Bogo Station in Terra Nova Bay, January 2021 - June 2021 2021-09-27
68 [KOPRI-KPDC-00001705]Wind data on ARAON DaDis for Arctic cruise, 2021 2021-09-27
69 [KOPRI-KPDC-00001704]Weather data on ARAON DaDis for Arctic cruise, 2021 2021-09-27
70 [KOPRI-KPDC-00001703]Thermosalinograph data on ARAON DaDis for Arctic cruise, 2021 2021-09-27
71 [KOPRI-KPDC-00001702]Motion sensor data on ARAON DaDis for Arctic cruise, 2021 2021-09-27
72 [KOPRI-KPDC-00001701]Gyro compass data on ARAON DaDis for Arctic cruise, 2021 2021-09-27
73 [KOPRI-KPDC-00001700]GPS data on ARAON DaDis for Arctic cruise, 2021 2021-09-27
74 [KOPRI-KPDC-00001699]Fluorometer data on ARAON DaDis for Arctic cruise, 2021 2021-09-27
75 [KOPRI-KPDC-00001694]Chlorophyll-a concentration from the Ross Sea, Antarctica, 2020 2021-09-24
76 [KOPRI-KPDC-00001693]Temporal variation of phytoplankton in the surface water of Marian Cove, King George Island, Antarctica, January 2021 - August 2021 2021-09-24
77 [KOPRI-KPDC-00001257]Extract Library (2019) 2021-08-04
78 [KOPRI-KPDC-00001258]Metabolite Library (2019) 2021-08-04
79 [KOPRI-KPDC-00001248]ASI Algorithm Daily AMSR2 (AND AMSR-E) Arctic Sea ice Concentration 2014 2021-08-04
80 [KOPRI-KPDC-00001052]Marine sediment core samples from Amundsen Sea expedition (ANA08B) in 2018 2021-08-04
81 [KOPRI-KPDC-00001000]Sub-bottom profile data in the Ross Sea, Antarctica 2021-08-04
82 [KOPRI-KPDC-00000999]2018 Multibeam bathymetry data in the Ross Sea, Antarctica 2021-08-04
83 [KOPRI-KPDC-00000911]LADCP data in the Maxwell Bay, Antarctica in 2018 2021-08-04
84 [KOPRI-KPDC-00000910]CTD data in the Maxwell Bay, Antarctica in 2018 2021-08-04
85 [KOPRI-KPDC-00000635]LADCP data to observe current of Circumpolar Deep Water (CDW) in the Amundsen Sea in 2015/2016. 2021-08-04
86 [KOPRI-KPDC-00000634]CTD data to observe Circumpolar Deep Water (CDW) in the Amundsen Sea in 2015/2016. 2021-08-04
87 [KOPRI-KPDC-00000261]XCTD Data surrounding Chukchi Borderland/Mendeleev Ridge in Arctic, 2012 2021-08-04
88 [KOPRI-KPDC-00000180]Carbon and Nitrogen uptake rates of phytoplankton in the Chukchi sea and Canada Basin, 2010 2021-08-04
89 [KOPRI-KPDC-00000179]Nutrients and phytoplankton pigment distribution in the Chukchi sea and Canada Basin, 2010 2021-08-04
90 [KOPRI-KPDC-00000178]Primary production by phytoplankton in the Canada Basin, 2009 2021-08-04
91 [KOPRI-KPDC-00000177]Environmental conditions and C and N uptakes of phytoplankton in Russian Chukchi sea, 2009 2021-08-04
92 [KOPRI-KPDC-00000176]Environmental conditions and C and N uptakes of phytoplankton in the Bering and Chukchi seas, 2008 2021-08-04
93 [KOPRI-KPDC-00000175]Production of phytoplankton and physics and chemistry factors in the Bering and Chukchi Sea, 2007 2021-08-04
94 [KOPRI-KPDC-00000086]Structure of phytoplankton communities in Chukchi Sea and Canadian Basin, 2009 2021-08-04
95 [KOPRI-KPDC-00000085]Structure of phytoplankton communities in Bering Sea, Chukchi Sea, and Canadian Basin, 2008 2021-08-04
96 [KOPRI-KPDC-00001666]Wind data on ARAON DaDis for Antarctic cruise, 2020/2021 2021-07-14
97 [KOPRI-KPDC-00001665]Weather data on ARAON DaDis for Antarctic cruise, 2020/2021 2021-07-13
98 [KOPRI-KPDC-00001664]Thermosalinograph data on ARAON DaDis for Antarctic cruise, 2020/2021 2021-07-13
99 [KOPRI-KPDC-00001663]Motion sensor data on ARAON DaDis for Antarctic cruise, 2020/2021 2021-07-13
100 [KOPRI-KPDC-00001662]Gyro compass data on ARAON DaDis for Antarctic cruise, 2020/2021 2021-07-13